User: anonymous   Login
Location: Avon Lake
(41.5219°N, 93.5010°W)
Time: 01:35:20
(UTC+00:00)
Language:

Tiangong - Orbit

View from above orbital plane
View from above orbital plane
View from above satellite
View from above satellite

Ground track
Ground track

The orbit data is extracted from the following two-line orbital elements,

1 48274U 21035A   24141.56224685  .00060762  00000-0  60241-3 0  9993
2 48274  41.4682 251.7852 0002694  18.5458 341.5480 15.64888082174775
Epoch (UTC): 20 May 2024 13:29:38
Eccentricity: 0.0002694
inclination: 41.4682°
perigee height: 372 km
apogee height: 375 km
right ascension of ascending node: 251.7852°
argument of perigee: 18.5458°
revolutions per day: 15.64888082
mean anomaly at epoch: 341.5480°
orbit number at epoch: 17477

The dashed part of the orbit path shows where the satellite is in the earth's shadow,  

DLR